www.pogodaiklimat.ru

Погода и климат >> Архив погоды >> Россия >> Чувашия >> Чебоксары


АРХИВ ПОГОДЫ в Чебоксарах

Время (UTC), дата Ветер
(напр.,м/с)
 
Видим.   Явления Облачность Т
(С)
Тd
(С)
f
(%)
Тe
(С)
Тes
(С)
Комфортность P
(гПа)
Po
(гПа)
Тmin
(С)
Tmax
(С)
R
(мм)
R24
(мм)
S
(см)
18 12.11 ЮЗ 4-5
{5}
10 км ясно -8.3 -14.1 63 -15 -15 очень
холодно
1050.6 1028.7
21 12.11 ЮЗ 2-3
{6}
10 км ясно -9.7 -14.3 69 -14 -14 холодно 1050.1 1028.0
00 13.11 ЮЗ 2-3
{5}
10 км ясно -10.8 -15.2 70 -15 -15 очень
холодно
1049.3 1027.2
03 13.11 С 3-4
{4}
10 км ясно -11.6 -15.1 75 -18 -18 очень
холодно
1048.8 1026.6 -11.8
06 13.11 ЮЗ 4-5
{5}
10 км ясно -9.3 -13.8 70 -16 -16 очень
холодно
1048.6 1026.7 -12.4
09 13.11 ЮЗ 4-6
{7}
10 км ясно -4.3 -13.3 49 -10 -9 прохладно 1047.3 1025.8
12 13.11 ЮЗ 5-7
{7}
10 км ясно -4.0 -16.6 37 -10 -10 прохладно 1045.5 1024.0
15 13.11 ЮЗ 5-6
{7}
10 км ясно -7.1 -14.0 58 -14 -14 холодно 1044.8 1023.0 -3.4
18 13.11 ЮЗ 5-7
{7}
10 км ясно -8.1 -14.9 58 -15 -15 очень
холодно
1042.8 1021.0
21 13.11 ЮЗ 6-8
{10}
10 км ясно -8.0 -14.2 61 -16 -16 очень
холодно
1040.5 1018.8
00 14.11 ЮЗ 7-9
{10}
10 км ясно -8.1 -14.3 61 -17 -17 очень
холодно
1039.4 1017.7
03 14.11 ЮЗ 6-8
{10}
10 км ясно -9.3 -14.9 64 -18 -18 очень
холодно
1037.9 1016.1 -9.3
06 14.11 ЮЗ 6-9
{9}
10 км 3/0
[Ac trans Ci fib]
-8.1 -14.9 58 -16 -16 очень
холодно
1037.2 1015.6 -9.5
09 14.11 ЮЗ 6-8
{10}
10 км 3/0
[Ac trans Ci fib]
-3.0 -15.9 36 -9 -9 по сезону 1036.1 1015.0
12 14.11 ЮЗ 7-9
{9}
10 км 3/0
[Ci fib]
-3.3 -15.1 40 -10 -10 прохладно 1035.8 1014.6
15 14.11 Ю 5-8
{9}
10 км ясно -5.6 -15.1 47 -12 -12 холодно 1035.9 1014.6 -2.5
18 14.11 ЮЗ 6-7
{8}
10 км ясно -6.7 -15.1 51 -14 -14 холодно 1036.1 1014.6
21 14.11 ЮЗ 3-4
{8}
10 км ясно -7.3 -14.3 57 -13 -13 холодно 1037.0 1015.5
00 15.11 ЮЗ 2-3
{5}
10 км ясно -9.0 -14.0 67 -13 -13 холодно 1037.0 1015.4
03 15.11 ЮЗ 3-4
{5}
10 км ясно -9.4 -13.4 73 -15 -15 холодно 1038.2 1016.5 -10.3
06 15.11 ЮЗ 5-6
{6}
10 км ясно -7.3 -12.6 66 -15 -14 холодно 1039.8 1018.3
09 15.11 ЮЗ 4-5
{7}
10 км ясно -2.2 -12.4 45 -7 -6 по сезону 1041.4 1020.2
12 15.11 Ю 3-4
{5}
10 км ясно -1.6 -11.9 45 -6 -6 по сезону 1042.7 1021.5
15 15.11 ЮЗ 4-5
{5}
10 км ясно -7.1 -12.9 63 -14 -14 холодно 1043.2 1021.7 -0.8
18 15.11 ЮЗ 5-5
{6}
10 км ясно -6.7 -13.3 59 -14 -14 холодно 1043.9 1022.2
21 15.11 ЮЗ 3-3
{5}
10 км ясно -8.9 -13.8 68 -15 -15 холодно 1045.1 1023.2
00 16.11 ЮЗ 4-4
{5}
10 км ясно -8.9 -13.8 68 -16 -16 очень
холодно
1045.6 1023.7
03 16.11 ЮЗ 4-4
{5}
10 км ясно -10.1 -14.9 68 -17 -17 очень
холодно
1045.7 1023.9 -10.4
06 16.11 ЮЗ 3-4
{4}
10 км ясно -6.8 -12.5 64 -12 -12 прохладно 1045.9 1024.2 -10.5
09 16.11 ЮЗ 2-3
{4}
10 км 4/0
[Ci fib]
-0.1 -14.0 34 -3 -2 по сезону 1045.1 1023.9
12 16.11 З 4-5
{6}
10 км 8/0
[Ci fib]
-1.0 -16.2 30 -6 -5 по сезону 1044.0 1022.8
15 16.11 З 5-7
{8}
10 км 3/0
[Ci fib]
-4.0 -14.6 43 -10 -10 по сезону 1043.0 1021.7 +0.5
18 16.11 З 4-4
{7}
10 км ясно -4.5 -14.9 44 -10 -10 по сезону 1041.4 1020.0
21 16.11 З 4-7
{7}
10 км 9/0
[Ac trans]
-1.4 -9.0 56 -7 -7 по сезону 1039.5 1018.4
00 17.11 З 6-9
{9}
10 км 9/0
[Ac trans]
-1.5 -6.7 68 -8 -8 по сезону 1037.3 1016.3
03 17.11 З 5-8
{9}
10 км 10/4 1000 м
[Sc As op]
-2.2 -6.9 70 -9 -9 по сезону 1035.1 1014.0 -5.0
06 17.11 З 5-7
{8}
10 км 10/8 300 м
[Sc As trans]
-2.0 -6.6 71 -8 -8 по сезону 1032.9 1011.9
09 17.11 З 5-8
{8}
10 км 10/8 300 м
[Sc As trans]
-0.2 -4.9 71 -6 -6 по сезону 1030.3 1009.5
12 17.11 З 6-8
{8}
10 км 10/8 300 м
[Sc As trans]
+0.1 -4.0 74 -6 -6 по сезону 1027.6 1006.9
15 17.11 З 5-8
{9}
10 км {дождь} 10/8 300 м
[Sc As trans]
-1.2 -4.1 81 -7 -7 по сезону 1025.2 1004.4 +0.4 0.0
18 17.11 З 5-8
{8}
10 км слабый переохл. дождь (гололёд) 10/10 200 м
[Frnb Ns]
-1.3 -2.7 90 -8 -8 по сезону 1022.5 1001.8
21 17.11 З 4-6
{8}
10 км слабый переохл. дождь (гололёд) [диам. гололёда 2 мм] 10/10 200 м
[Sc]
-1.0 -2.6 89 -7 -7 по сезону 1020.3 999.6
00 18.11 З 5-8
{8}
10 км {дождь} [диам. гололёда 2 мм] 10/10 200 м
[Sc]
-1.1 -2.7 89 -8 -8 по сезону 1018.8 998.1
03 18.11 З 4-6
{8}
10 км слабый снег [диам. гололёда 2 мм] 10/10 200 м
[Sc]
-1.3 -2.7 90 -7 -7 по сезону 1017.9 997.3 -1.6 0.9 <0.5
06 18.11 З 3-4
{6}
4000 м слабый снег [диам. гололёда 2 мм] 10/8 200 м
[Sc As op]
-1.0 -2.6 89 -6 -6 по сезону 1018.0 997.4
09 18.11 ЮЗ 3-5
{5}
4000 м дымка {снег} [диам. гололёда 2 мм] 10/10 200 м
[St]
-0.6 -2.1 90 -5 -5 по сезону 1019.0 998.5
12 18.11 З 3-4
{5}
4000 м слабый ливневой снег [диам. гололёда 2 мм] 10/10 200 м
[Cb cap]
-0.3 -1.8 90 -5 -5 по сезону 1020.5 999.9
15 18.11 З 2-3
{5}
4000 м дымка 10/10 200 м
[Sc]
-0.5 -2.0 90 -4 -4 по сезону 1021.1 1000.5 -0.3 0.5
18 18.11 З 3-4
{5}
10 км 10/10 200 м
[Sc]
-0.7 -2.6 87 -6 -6 по сезону 1022.1 1001.5
21 18.11 З 2-3
{4}
10 км 10/10 200 м
[Sc]
-0.5 -2.3 88 -4 -4 по сезону 1022.7 1002.1
00 19.11 З 2-3
{5}
10 км {снег} 10/10 200 м
[Sc]
-0.8 -2.7 87 -5 -5 по сезону 1022.8 1002.2
03 19.11 СЗ 3-5
{5}
10 км {снег} 10/10 200 м
[Sc]
-0.4 -2.2 88 -5 -5 по сезону 1023.4 1002.8 -0.8 0.1 1
06 19.11 СЗ 3-4
{5}
4000 м слабый снег 10/10 200 м
[Frnb Ns]
+0.1 -1.4 90 -5 -5 по сезону 1023.8 1003.1
09 19.11 СЗ 4-6
{6}
10 км слабый снег 10/10 200 м
[Frnb Ns]
+0.3 -1.1 90 -5 -5 по сезону 1025.1 1004.4
12 19.11 С 4-5
{9}
2000 м слабый ливневой снег 10/10 200 м
[Cb cap]
0.0 -1.2 92 -6 -6 по сезону 1025.8 1005.1
15 19.11 СЗ 4-6
{7}
4000 м слабый ливневой снег 10/10 300 м
[Cb cap]
-0.2 -1.9 88 -6 -6 по сезону 1026.4 1005.7 +0.4 1

 

Местоположение метеостанции Чебоксары (Чувашия, Россия): широта 56.08 долгота 47.33 высота над уровнем моря 163 м.

В архиве по умолчанию представлена погода в Чебоксарах за последнюю неделю. Архивные данные за месяц целиком и за предыдущие месяцы, начиная с января 2011 года, Вы можете получить, выбрав интересующий диапазон дат из раскрывающегося списка и нажав кнопку "Ввод!".


*Определитесь, кто Вы:
робот инопланетянин человек

Внимание! Время в таблицах - всемирное. Для получения местного времени необходимо прибавить поправку, которая в Чебоксарах равна 3 ч.

Смотрите также архив погоды в соседних городах и на ближайших метеорологических станциях:

Погода в Козьмодемьянске (Марий-Эл, Россия) (54 км)
Погода в Канаше (Чувашия, Россия) (63 км)
Погода в Йошкар-Оле (Марий-Эл, Россия) (67 км)
Погода в Вязовых (Татарстан, Россия) (80 км)
Погода в Больших Кайбицах (Татарстан, Россия) (92 км)
Погода в Санчурске (Кировская область, Россия) (100 км)
Погода в Морках (Марий-Эл, Россия) (111 км)
Погода в Батырево (Чувашия, Россия) (114 км)
Погода в Порецком (Чувашия, Россия) (118 км)
Погода в Казани (Татарстан, Россия) (123 км)

Пояснения к столбцам:

Ветер - указаны скорость ветра в м/с - средняя за 10 мин, порывы в срок и между сроками (в фигурных скобках) и направление, откуда дует ветер: С - северный, СВ - северо-восточный, В - восточный, ЮВ - юго-восточный, Ю - южный, ЮЗ - юго-западный, З - западный, СЗ - северо-западный.
Видимость - горизонтальная дальность видимости в метрах или километрах. При видимости от 1 до 10 км при отсутствии осадков обычно наблюдается дымка, при ухудшении видимости до 1 км и менее - туман. В сухую погоду видимость может ухудшаться дымом, пылью или мглою.
Явления - указаны атмосферные явления, наблюдавшиеся в срок или в последний час перед сроком; фигурными скобками обозначены явления, наблюдавшиеся между сроками (за 1-3 часа до срока); квадратными скобками обозначены град или гололедные отложения с указанием их диаметра в мм.
Облачность - указаны через наклонную черту общая и нижняя облачность в баллах и высота нижней границы облаков в метрах; квадратными скобками обозначены формы облаков: Ci - перистые, Cs - перисто-слоистые, Cc - перисто-кучевые, Ac - высококучевые, As - высокослоистые, Sc - слоисто-кучевые, Ns - слоисто-дождевые, Cu - кучевые, Cb - кучево-дождевые. Подробнее классификацию облаков см. в Атласе облаков (PDF).
T - Температура воздуха - температура, измеренная на высоте 2 м над землей.
Td - Температура точки росы - температура, при понижении до которой содержащийся в воздухе водяной пар достигнет насыщения.
f - Относительная влажность воздуха - влажноcть воздуха, измеренная на высоте 2 м над землей.
Te - Эффективная температура - температура, которую ощущает одетый по сезону человек в тени. Характеристика душности погоды. При расчете учитывается влияние влажности воздуха и скорости ветра на теплоощущения человека.
Tes - Эффективная температура на солнце - температура, которую ощущает человек, с поправкой на солнечный нагрев. Характеристика знойности погоды. Зависит от высоты солнца над горизонтом, облачности и скорости ветра. Ночью, в пасмурную погоду, а также при ветре 12 м/с и более поправка равна нулю.
P - Атмосферное давление - приведенное к уровню моря атмосферное давление.
Po - Атмосферное давление - измеренное на уровне метеостанции атмосферное давление.
Tmin - Минимальная температура - минимум температуры воздуха на высоте 2 м над землей.
Tmax - Максимальная температура - максимум температуры воздуха на высоте 2 м над землей.
R - Количество осадков - Количество выпавших осадков за период времени, мм. При наведении курсора мыши на число - период времени, за который выпало указанное количество осадков.
R24 - Количество осадков - Количество выпавших осадков за 24 часа, мм.
S - Снежный покров - Высота снежного покрова, см. При наведении курсора мыши на число - состояние снежного покрова и степень покрытия местности в баллах.